sat.trackr.live / text

‹ back to catalog

STARLINK-30537

NORAD 57991 · 2023-153A

PAYLOAD ACTIVE UNKNOWN

§ Identity

Operator
Country
US
Launch date
2023-10-05
Launch site
AFETR
Launch vehicle
Mass (kg)
RCS (m²)

Purposes: comms

External: N2YO · Heavens-Above · Gunter

§ Orbital elements

Epoch: 2026-05-24T23:18:39.849984Z

Period
94.27 min
Inclination
43.0067°
Eccentricity
0.0002162
Mean motion
15.27574116 rev/d
Perigee alt
481.6 km
Apogee alt
484.6 km
Semi-major
6,861.2 km
B*
-6.5225e-6
RAAN
356.1779°
Arg perigee
267.6947°
Mean anomaly
92.3657°
Rev number
14,646

§ Raw data

STARLINK-305371 57991U 23153A   26144.97129456 -.00000442  00000+0 -65225-5 0  99912 57991  43.0067 356.1779 0002162 267.6947  92.3657 15.27574116146465

JSON: /api/v1/satellites/57991 · /tle

For live sub-satellite position, see the globe view (requires WebGL).

§ Visibility from observer

Set your observer location to see the next 7 days of passes ≥ 10°. The values pass through the URL so the page stays shareable.

No JS? Fill the form by hand. The geolocation button needs JavaScript.